FW4335 Weather Reports


Display with metric or nautical units.
time (UTC)temp
F
wind
direction
speed
MPH
gust
MPH
rain 1hr
in
rain 24hr
in
rain mn
in
humidity
%
barometer
mb
20260901164534 62 345 0.0 2.0 0.00 0.00 0.00 80 1013.5
20260901161534 60 225 0.0 0.0 0.00 0.00 0.00 89 1013.6
20260901154609 56 225 0.0 0.0 0.00 0.00 0.00 93 1013.4
20260901153106 54 225 0.0 0.0 0.00 0.00 0.00 94 1013.3
20260901151536 52 225 0.0 1.0 0.00 0.00 0.00 94 1013.3
20260901150148 52 225 0.0 1.0 0.00 0.00 0.00 94 1013.2
20260901144534 51 225 0.0 0.0 0.00 0.00 0.00 94 1013.1
20260901143032 50 225 0.0 1.0 0.00 0.00 0.00 94 1013.0
20260901141536 50 225 0.0 1.0 0.00 0.00 0.00 94 1012.9
20260901140037 49 225 0.0 1.0 0.00 0.00 0.00 93 1012.7
20260901134535 49 225 0.0 2.0 0.00 0.00 0.00 93 1012.5
20260901133029 49 214 0.0 2.0 0.00 0.00 0.00 92 1012.4
20260901130035 49 184 0.0 2.0 0.00 0.00 0.00 92 1012.1
20260901123031 49 206 0.0 1.0 0.00 0.00 0.00 91 1012.0
20260901121535 49 225 0.0 1.0 0.00 0.00 0.00 91 1012.0
20260901111536 49 198 1.0 3.0 0.00 0.00 0.00 90 1011.8
20260901110035 49 192 0.0 2.0 0.00 0.00 0.00 90 1011.8
20260901104530 49 204 0.0 2.0 0.00 0.00 0.00 89 1011.8
20260901103036 49 206 0.0 3.0 0.00 0.00 0.00 89 1011.8
20260901101536 50 241 0.0 3.0 0.00 0.00 0.00 88 1011.7
20260901094609 50 212 0.0 3.0 0.00 0.00 0.00 88 1011.8
20260901093034 50 180 0.0 1.0 0.00 0.00 0.00 88 1011.8
20260901091536 50 225 0.0 2.0 0.00 0.00 0.00 87 1011.5
20260901084533 50 210 0.0 2.0 0.00 0.00 0.00 86 1011.6
20260901083034 51 202 0.0 2.0 0.00 0.00 0.00 85 1011.7
20260901081533 51 202 0.0 2.0 0.00 0.00 0.00 84 1011.8
20260901080034 52 180 0.0 0.0 0.00 0.00 0.00 84 1011.6
20260901074530 52 200 0.0 2.0 0.00 0.00 0.00 83 1011.5
20260901073109 52 229 1.0 4.0 0.00 0.00 0.00 82 1011.4
20260901071534 52 200 1.0 3.0 0.00 0.00 0.00 81 1011.4
20260901070051 53 202 0.0 4.0 0.00 0.00 0.00 80 1011.3
20260901064609 53 220 0.0 4.0 0.00 0.00 0.00 79 1011.3
20260901063035 54 240 0.0 3.0 0.00 0.00 0.00 78 1011.5
20260901061536 54 199 0.0 2.0 0.00 0.00 0.00 78 1011.5
20260901060034 54 206 0.0 2.0 0.00 0.00 0.00 77 1011.5
20260901053142 56 185 0.0 4.0 0.00 0.00 0.00 73 1011.5
20260901044536 58 210 0.0 2.0 0.00 0.00 0.00 69 1011.4
20260901043035 59 225 0.0 2.0 0.00 0.00 0.00 67 1011.2
20260901041530 60 215 1.0 2.0 0.00 0.00 0.00 68 1011.1
20260901040109 60 197 0.0 2.0 0.00 0.00 0.00 70 1010.9
20260901034533 61 202 0.0 1.0 0.00 0.00 0.00 68 1010.7
20260901033038 63 202 0.0 0.0 0.00 0.00 0.00 63 1010.4
20260901031537 65 202 0.0 0.0 0.00 0.00 0.00 59 1010.3
20260901030034 66 202 0.0 0.0 0.00 0.00 0.00 56 1010.1
20260901024537 67 202 0.0 1.0 0.00 0.00 0.00 52 1010.0
20260901020036 73 202 0.0 2.0 0.00 0.00 0.00 44 1009.7
20260901014611 76 250 0.0 3.0 0.00 0.00 0.00 39 1009.7
20260901013032 81 299 0.0 2.0 0.00 0.00 0.00 34 1009.7
20260901011535 83 15 0.0 0.0 0.00 0.00 0.00 37 1009.7
20260901010033 85 22 0.0 0.0 0.00 0.00 0.00 36 1009.7
20260901004535 85 22 0.0 0.0 0.00 0.00 0.00 35 1009.8
20260901003038 84 22 0.0 0.0 0.00 0.00 0.00 30 1010.0
20260901001534 85 36 0.0 3.0 0.00 0.00 0.00 26 1010.1
20260901000035 85 75 0.0 5.0 0.00 0.00 0.00 27 1010.2
20260831234536 84 20 0.0 6.0 0.00 0.00 0.00 28 1010.4
20260831233035 84 44 0.0 5.0 0.00 0.00 0.00 28 1010.5
20260831231536 84 15 1.0 5.0 0.00 0.00 0.00 27 1010.7
20260831230038 84 34 2.0 7.0 0.00 0.00 0.00 26 1010.9
20260831224532 84 19 2.0 9.0 0.00 0.00 0.00 27 1011.2
20260831223034 84 26 2.0 10.0 0.00 0.00 0.00 27 1011.4
20260831221641 84 28 2.0 10.0 0.00 0.00 0.00 28 1011.6
20260831220035 83 32 1.0 5.0 0.00 0.00 0.00 30 1011.8
20260831214535 82 26 2.0 9.0 0.00 0.00 0.00 32 1012.4
20260831211608 82 30 2.0 9.0 0.00 0.00 0.00 34 1012.5
20260831204534 81 22 2.0 8.0 0.00 0.00 0.00 36 1012.8
20260831203143 81 8 2.0 7.0 0.00 0.00 0.00 36 1013.2
20260831201608 80 38 2.0 11.0 0.00 0.00 0.00 35 1013.6
20260831191537 78 31 2.0 7.0 0.00 0.00 0.00 39 1014.7
20260831190034 77 17 2.0 6.0 0.00 0.00 0.00 42 1014.9
20260831184531 75 358 1.0 5.0 0.00 0.00 0.00 45 1015.2
20260831181536 76 334 0.0 5.0 0.00 0.00 0.00 55 1015.8
20260831180148 72 303 0.0 3.0 0.00 0.00 0.00 60 1016.1
20260831174537 69 9 0.0 4.0 0.00 0.00 0.00 59 1016.2
20260831173036 69 28 1.0 4.0 0.00 0.00 0.00 59 1016.5
20260831171537 68 353 0.0 3.0 0.00 0.00 0.00 61 1016.6